This is the latest recevied weather packets stored in our database for station/object WE0DX-1. If no packets are shown the sender has not sent any weather packets the latest 1 day(s).
| Time | Temp. | Humidity | Pressure | Rain* | Wind** | Luminosity | Snow |
|---|---|---|---|---|---|---|---|
| 1778014919 | 11.11° C | 76% | 1011.2 hPa | 0 mm | 0 m/s | 118 W/m² | - |
| 1778014617 | 11.11° C | 76% | 1011.3 hPa | 0 mm | 0 m/s | 134 W/m² | - |
| 1778014315 | 11.11° C | 76% | 1011.4 hPa | 0 mm | 0 m/s | 142 W/m² | - |
| 1778014011 | 10.56° C | 77% | 1011.3 hPa | 0 mm | 0 m/s | 139 W/m² | - |
| 1778013709 | 10.56° C | 76% | 1011.4 hPa | 0 mm | 0.45 m/s, 49° | 138 W/m² | - |
| 1778013406 | 10.56° C | 75% | 1011.6 hPa | 0 mm | 0.45 m/s, 49° | 111 W/m² | - |
| 1778013102 | 10.56° C | 76% | 1011.5 hPa | 0 mm | 0 m/s | 159 W/m² | - |
| 1778012797 | 10.56° C | 76% | 1011.2 hPa | 0 mm | 0 m/s | 140 W/m² | - |
| 1778012494 | 10.56° C | 79% | 1011.5 hPa | 0 mm | 0 m/s | 104 W/m² | - |
| 1778012185 | 10.56° C | 79% | 1011.2 hPa | 0 mm | 0 m/s | 97 W/m² | - |
| 1778011883 | 10.56° C | 80% | 1011.4 hPa | 0 mm | 0 m/s | 96 W/m² | - |
| 1778011581 | 10.56° C | 79% | 1011.4 hPa | 0 mm | 0 m/s | 126 W/m² | - |
| 1778011278 | 10.56° C | 87% | 1011.7 hPa | 0 mm | 0 m/s | 116 W/m² | - |
| 1778010974 | 10.56° C | 87% | 1011.8 hPa | 0 mm | 0 m/s | 130 W/m² | - |
| 1778010671 | 10.56° C | 88% | 1011.6 hPa | 0 mm | 0 m/s | 168 W/m² | - |
| 1778010368 | 10.56° C | 87% | 1011.5 hPa | 0 mm | 0 m/s | 157 W/m² | - |
| 1778010063 | 10.56° C | 86% | 1011.8 hPa | 0 mm | 0 m/s | 164 W/m² | - |
| 1778009761 | 10° C | 87% | 1011.6 hPa | 0 mm | 0 m/s | 167 W/m² | - |
| 1778009458 | 10° C | 88% | 1011.7 hPa | 0 mm | 0 m/s | 143 W/m² | - |
| 1778009157 | 10° C | 85% | 1011.7 hPa | 0 mm | 0 m/s | 133 W/m² | - |
| 1778008854 | 10° C | 86% | 1011.7 hPa | 0 mm | 0 m/s | 126 W/m² | - |
| 1778008552 | 9.44° C | 85% | 1011.5 hPa | 0 mm | 0 m/s | 115 W/m² | - |
| 1778008249 | 9.44° C | 85% | 1011.8 hPa | 0 mm | 0 m/s | 111 W/m² | - |
| 1778007944 | 9.44° C | 86% | 1011.7 hPa | 0 mm | 0 m/s | 120 W/m² | - |
| 1778007641 | 10° C | 86% | 1011.6 hPa | 0 mm | 0 m/s | 120 W/m² | - |
* Rain latest hour (hover to see other rain measurements)
** Current wind speed in m/s (hover to see current wind gust speed)